• In Netherlands
  • List of Countries
  • For 7 days
  • Water Temperature
  • Satellite Maps
  • Weather Map
  • Weather Widgets
  • user-avatar
    Login

    Hourly Weather Jambol

    Today, 29 March, Wednesday

    Time Temperature Precipitation Wind Pressure Humidity
    00:00 +7°C° 0 mm 1 mps 754 mmHg 76%
    01:00 +7°C° 0 mm 1 mps 754 mmHg 76%
    02:00 +7°C° 0 mm 1 mps 754 mmHg 76%
    03:00 +7°C° 0 mm 1 mps 754 mmHg 77%
    04:00 +6°C° 0 mm 1 mps 754 mmHg 77%
    05:00 +6°C° 0 mm 1 mps 754 mmHg 77%
    06:00 +8°C° 0 mm 1 mps 754 mmHg 69%
    07:00 +11°C° 0 mm 1 mps 754 mmHg 61%
    08:00 +13°C° 0 mm 1 mps 755 mmHg 53%
    09:00 +15°C° 0 mm 1 mps 755 mmHg 49%
    10:00 +16°C° 0 mm 1 mps 755 mmHg 45%
    11:00 +19°C° 0 mm 1 mps 755 mmHg 42%
    12:00 +19°C° 0 mm 2 mps 755 mmHg 41%
    13:00 +20°C° 0 mm 2 mps 754 mmHg 40%
    14:00 +20°C° 0 mm 2 mps 754 mmHg 39%
    15:00 +20°C° 0 mm 2 mps 754 mmHg 43%
    16:00 +20°C° 0 mm 2 mps 753 mmHg 47%
    17:00 +19°C° 0 mm 2 mps 753 mmHg 51%
    18:00 +16°C° 0 mm 1 mps 753 mmHg 60%
    19:00 +14°C° 0 mm 1 mps 753 mmHg 68%
    20:00 +11°C° 0 mm 1 mps 753 mmHg 77%
    21:00 +10°C° 0 mm 1 mps 753 mmHg 78%
    22:00 +10°C° 0 mm 1 mps 753 mmHg 79%
    23:00 +8°C° 0 mm 0 mps 753 mmHg 81%

    Tomorrow, 30 March, Thursday

    Time Temperature Precipitation Wind Pressure Humidity
    00:00 +8°C° 0 mm 0 mps 753 mmHg 81%
    01:00 +8°C° 0 mm 0 mps 753 mmHg 82%
    02:00 +7°C° 0 mm 0 mps 752 mmHg 82%
    03:00 +8°C° 0 mm 1 mps 752 mmHg 81%
    04:00 +8°C° 0 mm 1 mps 752 mmHg 80%
    05:00 +8°C° 0 mm 1 mps 752 mmHg 80%
    06:00 +10°C° 0 mm 1 mps 752 mmHg 73%
    07:00 +12°C° 0 mm 1 mps 752 mmHg 67%
    08:00 +14°C° 0 mm 1 mps 752 mmHg 60%
    09:00 +16°C° 0 mm 2 mps 753 mmHg 55%
    10:00 +18°C° 0 mm 2 mps 753 mmHg 50%
    11:00 +20°C° 0 mm 2 mps 753 mmHg 46%
    12:00 +20°C° 0 mm 3 mps 753 mmHg 45%
    13:00 +21°C° 0 mm 3 mps 752 mmHg 45%
    14:00 +21°C° 0 mm 3 mps 752 mmHg 45%
    15:00 +20°C° 0.3 mm 4 mps 752 mmHg 51%
    16:00 +19°C° 0.3 mm 4 mps 752 mmHg 57%
    17:00 +18°C° 0.3 mm 4 mps 752 mmHg 63%
    18:00 +15°C° 0.2 mm 4 mps 753 mmHg 71%
    19:00 +13°C° 0.2 mm 3 mps 753 mmHg 78%
    20:00 +11°C° 0.2 mm 3 mps 754 mmHg 85%
    21:00 +10°C° 0.1 mm 3 mps 754 mmHg 86%
    22:00 +10°C° 0.1 mm 2 mps 755 mmHg 88%
    23:00 +9°C° 0.1 mm 2 mps 756 mmHg 89%

    Day after tomorrow, 31 March, Friday

    Time Temperature Precipitation Wind Pressure Humidity
    00:00 +9°C° 0 mm 2 mps 756 mmHg 89%
    01:00 +9°C° 0 mm 2 mps 756 mmHg 88%
    02:00 +9°C° 0 mm 2 mps 756 mmHg 88%
    03:00 +9°C° 0 mm 2 mps 756 mmHg 89%
    04:00 +8°C° 0 mm 2 mps 756 mmHg 91%
    05:00 +7°C° 0 mm 3 mps 756 mmHg 92%
    06:00 +8°C° 0 mm 3 mps 757 mmHg 87%
    07:00 +8°C° 0 mm 4 mps 757 mmHg 83%
    08:00 +8°C° 0 mm 5 mps 758 mmHg 78%
    09:00 +9°C° 0 mm 5 mps 758 mmHg 73%
    10:00 +10°C° 0 mm 6 mps 758 mmHg 67%
    11:00 +11°C° 0 mm 7 mps 758 mmHg 62%
    12:00 +11°C° 0 mm 7 mps 758 mmHg 62%
    13:00 +11°C° 0 mm 7 mps 758 mmHg 62%
    14:00 +11°C° 0 mm 7 mps 758 mmHg 61%
    15:00 +10°C° 0 mm 6 mps 758 mmHg 64%
    16:00 +9°C° 0 mm 6 mps 757 mmHg 67%
    17:00 +9°C° 0 mm 6 mps 757 mmHg 69%
    18:00 +8°C° 0 mm 5 mps 758 mmHg 73%
    19:00 +6°C° 0 mm 4 mps 758 mmHg 78%
    20:00 +5°C° 0 mm 4 mps 758 mmHg 82%
    21:00 +4°C° 0 mm 3 mps 758 mmHg 84%
    22:00 +4°C° 0 mm 3 mps 758 mmHg 86%
    23:00 +3°C° 0 mm 3 mps 758 mmHg 88%

    1 April, Saturday

    Time Temperature Precipitation Wind Pressure Humidity
    00:00 +3°C° 0 mm 2 mps 758 mmHg 89%
    01:00 +3°C° 0 mm 2 mps 758 mmHg 90%
    02:00 +2°C° 0 mm 2 mps 757 mmHg 91%
    03:00 +2°C° 0 mm 2 mps 757 mmHg 91%
    04:00 +3°C° 0 mm 1 mps 757 mmHg 91%
    05:00 +2°C° 0 mm 1 mps 757 mmHg 91%
    06:00 +3°C° 0 mm 2 mps 757 mmHg 83%
    07:00 +4°C° 0 mm 2 mps 757 mmHg 75%
    08:00 +6°C° 0 mm 2 mps 757 mmHg 67%
    09:00 +7°C° 0 mm 2 mps 757 mmHg 60%
    10:00 +9°C° 0 mm 2 mps 757 mmHg 53%
    11:00 +12°C° 0 mm 2 mps 756 mmHg 47%
    12:00 +12°C° 0 mm 3 mps 756 mmHg 45%
    13:00 +13°C° 0 mm 3 mps 756 mmHg 43%
    14:00 +13°C° 0 mm 3 mps 755 mmHg 40%
    15:00 +13°C° 0 mm 3 mps 755 mmHg 44%
    16:00 +13°C° 0 mm 3 mps 755 mmHg 47%
    17:00 +12°C° 0 mm 3 mps 755 mmHg 50%
    18:00 +10°C° 0 mm 3 mps 755 mmHg 60%
    19:00 +7°C° 0 mm 3 mps 755 mmHg 70%
    20:00 +5°C° 0 mm 2 mps 755 mmHg 80%
    21:00 +4°C° 0 mm 2 mps 755 mmHg 83%
    22:00 +3°C° 0 mm 2 mps 755 mmHg 85%
    23:00 +4°C° 0 mm 1 mps 755 mmHg 87%

    2 April, Sunday

    Time Temperature Precipitation Wind Pressure Humidity
    00:00 +3°C° 0 mm 1 mps 755 mmHg 88%
    01:00 +3°C° 0 mm 1 mps 755 mmHg 88%
    02:00 +2°C° 0 mm 1 mps 755 mmHg 89%
    03:00 +2°C° 0 mm 1 mps 754 mmHg 88%
    04:00 +2°C° 0 mm 1 mps 754 mmHg 88%
    05:00 0°C° 0 mm 0 mps 754 mmHg 88%
    06:00 +4°C° 0 mm 1 mps 755 mmHg 78%
    07:00 +6°C° 0 mm 1 mps 755 mmHg 69%
    08:00 +8°C° 0 mm 1 mps 755 mmHg 60%
    09:00 +10°C° 0 mm 1 mps 755 mmHg 53%
    10:00 +12°C° 0 mm 1 mps 756 mmHg 46%
    11:00 +14°C° 0 mm 2 mps 756 mmHg 39%
    12:00 +15°C° 0 mm 2 mps 755 mmHg 37%
    13:00 +16°C° 0 mm 2 mps 755 mmHg 36%
    14:00 +16°C° 0 mm 3 mps 755 mmHg 35%
    15:00 +16°C° 0 mm 3 mps 755 mmHg 40%
    16:00 +14°C° 0 mm 3 mps 755 mmHg 44%
    17:00 +14°C° 0 mm 3 mps 755 mmHg 49%
    18:00 +11°C° 0 mm 3 mps 755 mmHg 58%
    19:00 +9°C° 0 mm 2 mps 755 mmHg 66%
    20:00 +6°C° 0 mm 2 mps 755 mmHg 75%
    21:00 +6°C° 0 mm 2 mps 755 mmHg 76%
    22:00 +5°C° 0 mm 2 mps 755 mmHg 77%
    23:00 +5°C° 0 mm 1 mps 755 mmHg 78%

    3 April, Monday

    Time Temperature Precipitation Wind Pressure Humidity
    00:00 +5°C° 0 mm 1 mps 755 mmHg 80%
    01:00 +4°C° 0 mm 1 mps 755 mmHg 81%
    02:00 +4°C° 0 mm 1 mps 755 mmHg 82%
    03:00 +4°C° 0 mm 1 mps 755 mmHg 81%
    04:00 +4°C° 0 mm 1 mps 754 mmHg 80%
    05:00 +3°C° 0 mm 1 mps 754 mmHg 79%
    06:00 +5°C° 0 mm 1 mps 754 mmHg 72%
    07:00 +8°C° 0 mm 1 mps 754 mmHg 65%
    08:00 +10°C° 0 mm 1 mps 754 mmHg 59%
    09:00 +10°C° 0 mm 2 mps 754 mmHg 55%
    10:00 +13°C° 0 mm 2 mps 754 mmHg 52%
    11:00 +14°C° 0 mm 3 mps 754 mmHg 48%
    12:00 +14°C° 0 mm 3 mps 754 mmHg 48%
    13:00 +16°C° 0 mm 3 mps 753 mmHg 48%
    14:00 +17°C° 0 mm 3 mps 753 mmHg 48%
    15:00 +16°C° 0 mm 3 mps 753 mmHg 52%
    16:00 +16°C° 0 mm 3 mps 752 mmHg 56%
    17:00 +14°C° 0 mm 4 mps 752 mmHg 60%
    18:00 +12°C° 0 mm 3 mps 752 mmHg 68%
    19:00 +10°C° 0 mm 3 mps 752 mmHg 77%
    20:00 +8°C° 0 mm 2 mps 752 mmHg 85%
    21:00 +7°C° 0 mm 2 mps 752 mmHg 86%
    22:00 +7°C° 0 mm 2 mps 752 mmHg 87%
    23:00 +7°C° 0 mm 2 mps 752 mmHg 89%
    Show more